Regional Weather Roundup
Issued by NWS Cleveland, OH

Home | Current Version | Previous Version | Graphics & Text | Print | Product List | Glossary On
Versions: 1 2 3 4 5 6 7 8 9 10 11 12 13 14 15 16 17 18 19 20 21 22 23 24 25 26 27 28 29 30 31 32 33 34 35 36 37 38 39 40 41 42 43 44 45 46 47 48 49 50
083
ASUS41 KCLE 250002
RWRCLE
OHIO REGIONAL WEATHER ROUNDUP
NATIONAL WEATHER SERVICE CLEVELAND, OH
800 PM EDT SAT SEP 24 2016

NOTE: "FAIR" INDICATES FEW OR NO CLOUDS BELOW 12,000 FEET WITH NO
SIGNIFICANT WEATHER AND/OR OBSTRUCTIONS TO VISIBILITY.

OHZ001>008-015>018-024>027-034-035-043-044-250100-
   NORTHWEST OHIO

CITY           SKY/WX    TMP DP  RH WIND       PRES   REMARKS
DEFIANCE       CLEAR     67  56  67 E7        30.18S
FINDLAY        CLEAR     68  55  63 NE13      30.17S
TOLEDO EXPRESS CLEAR     60  57  89 E3        30.19S
TOLEDO EXEC    CLEAR     64  55  72 E6        30.20F
LIMA           CLEAR     66  59  78 NE6       30.16S
$$

OHZ009>014-019>023-028>033-038-089-250100-
   NORTHEAST OHIO

CITY           SKY/WX    TMP DP  RH WIND       PRES   REMARKS
CLE-HOPKINS    CLEAR     64  48  56 NE13      30.21F
CLE-LAKEFRONT  CLEAR     64  48  56 NE10      30.19S
CUY CO. ARPT   CLEAR     59  52  77 E7        30.22R
LORAIN-ELYRIA  CLEAR     59  50  72 NE6       30.21R
ASHTABULA      CLEAR     53  48  83 CALM      30.22R
AKRON-CANTON   CLEAR     63  49  60 NE10      30.18R
WOOSTER        CLEAR     60  53  77 N8        30.19R
MANSFIELD      CLEAR     63  52  67 N10       30.19R
YOUNGSTOWN     PTCLDY    58  49  72 N8        30.19S
$$

OHZ042-051>053-060>062-070>072-077>081-250100-
  SOUTHWEST OHIO

CITY           SKY/WX    TMP DP  RH WIND       PRES   REMARKS
CINC-COVINGTON PTCLDY    78  67  68 NE9       30.11S
CINC-LUNKEN    CLEAR     74  68  81 NE5       30.10F
HAMILTON       CLEAR     74  65  73 N5        30.12S
DAYTON         PTCLDY    72  62  71 N3        30.14S
WRIGHT-PAT AFB NOT AVBL
DAYTON GENERAL CLEAR     72  63  73 NE3       30.13S
WILMINGTON     CLEAR     72  64  76 NE6       30.13R
$$

OHZ036-037-039>041-045>050-054>059-063>069-073>076-082>088-250100-
  CENTRAL AND SOUTHEAST OHIO

CITY           SKY/WX    TMP DP  RH WIND       PRES   REMARKS
COLUMBUS       CLEAR     72  60  66 NE7       30.13R
OSU AIRPORT    CLEAR     69  59  70 N7        30.13S
BOLTON FIELD   CLEAR     71  59  65 CALM      30.14S
RICKENBACK AFB CLEAR     71  60  69 E3        30.12F
NEWARK         CLEAR     70  58  65 NE3       30.14R
MARION         CLEAR     66  55  67 NE10      30.17R
LANCASTER      CLEAR     69  60  73 E3        30.13S
ZANESVILLE     CLEAR     69  56  62 N3        30.14S
NEW PHILLY     CLEAR     68  49  50 NE3       30.16S
$$




USA.gov is the U.S. government's official web portal to all federal, state and local government web resources and services.